Weather History for KATW - November, 2012

Change the Weather History Date:

Saturday, November 10, 2012

  Actual Average Record
Temperature  
Mean Temperature 52 °F -  
Max Temperature 62 °F 42 °F 62 °F (1949)
Min Temperature 42 °F 29 °F 14 °F (1979)
Degree Days  
Heating Degree Days 13    
Growing Degree Days 2 (Base 50)    
Moisture  
Dew Point 47 °F    
Average Humidity 85    
Maximum Humidity 100    
Minimum Humidity 63    
Precipitation  
Precipitation 0.00 in - - ()
Sea Level Pressure  
Sea Level Pressure 29.87 in    
Wind  
Wind Speed 12 mph (SE)    
Max Wind Speed 25 mph    
Max Gust Speed 26 mph    
Visibility 8 miles    
Events Rain    
Averages and records for this station are not official NWS values.
T = Trace of Precipitation, MM = Missing Value Source: NWS Daily Summary

Daily Weather History Graph

Daily Weather History Graph

Search for Another Location

Airport or City:

Trip Planner

Search our weather history database for the weather conditions in past years. The results will help you decide how hot, cold, wet, or windy it might be!

Date:

Astronomy

Nov. 10, 2012 Rise Set
Actual Time 6:43 AM CST 4:31 PM CST
Civil Twilight 6:12 AM CST 5:02 PM CST
Nautical Twilight 5:37 AM CST 5:37 PM CST
Astronomical Twilight 5:03 AM CST 6:11 PM CST
Moon 2:41 AM CST (11/10) 2:24 PM CST (11/10)
Length of Visible Light 10h 49m
Length of Day
9h 48m
Waning Crescent, 14% of the Moon is Illuminated
Nov 10
Waning Crescent
Nov 13
New
Nov 20
First Quarter
Nov 28
Full
Dec 6
Last Quarter

Hourly Weather History & Observations

Time (CST) Temp. Windchill Dew Point Humidity Pressure Visibility Wind Dir Wind Speed Gust Speed Precip Events Conditions
12:15 AM 42.8 °F 36.2 °F 41.0 °F 93% 30.05 in 10.0 mi NE 12.7 mph 18.4 mph N/A   Overcast
12:35 AM 42.8 °F 36.6 °F 41.0 °F 93% 30.06 in 10.0 mi NE 11.5 mph 17.3 mph N/A   Overcast
12:55 AM 42.8 °F 36.2 °F 41.0 °F 93% 30.05 in 10.0 mi NE 12.7 mph - N/A   Overcast
1:15 AM 42.8 °F 35.8 °F 41.0 °F 93% 30.05 in 10.0 mi NE 13.8 mph - N/A   Overcast
1:35 AM 42.8 °F 37.5 °F 41.0 °F 93% 30.07 in 10.0 mi NE 9.2 mph - N/A   Overcast
1:55 AM 42.8 °F 37.5 °F 41.0 °F 93% 30.07 in 10.0 mi NE 9.2 mph - N/A   Overcast
5:15 AM 42.8 °F 37.0 °F 42.8 °F 100% 29.97 in 5.0 mi ENE 10.4 mph - N/A Rain Light Rain
5:45 AM 42.8 °F 38.0 °F 42.8 °F 100% 30.00 in 4.0 mi NE 8.1 mph - N/A Rain Light Rain
6:45 AM 44.6 °F 39.7 °F 44.6 °F 100% 29.97 in 2.0 mi ENE 9.2 mph - N/A   Overcast
7:45 AM 44.6 °F 39.7 °F 44.6 °F 100% 29.96 in 2.0 mi East 9.2 mph - N/A   Overcast
8:45 AM 46.4 °F 42.9 °F 44.6 °F 93% 29.94 in 3.0 mi East 6.9 mph - N/A   Overcast
9:45 AM 46.4 °F 42.4 °F 46.4 °F 100% 29.92 in 3.0 mi East 8.1 mph - N/A   Overcast
10:45 AM 48.2 °F - 46.4 °F 93% 29.89 in 4.0 mi ESE 9.2 mph - N/A   Overcast
11:45 AM 50.0 °F - 48.2 °F 94% 29.85 in 3.0 mi ESE 9.2 mph - N/A   Overcast
12:45 PM 51.8 °F - 48.2 °F 88% 29.81 in 7.0 mi ESE 9.2 mph - N/A   Overcast
1:45 PM 55.4 °F - 51.8 °F 88% 29.79 in 10.0 mi SE 11.5 mph 17.3 mph N/A   Scattered Clouds
2:45 PM 57.2 °F - 53.6 °F 88% 29.75 in 10.0 mi SE 11.5 mph - N/A   Scattered Clouds
3:45 PM 57.2 °F - 51.8 °F 82% 29.76 in 10.0 mi SE 9.2 mph - N/A   Scattered Clouds
4:09 PM 57.2 °F - 51.8 °F 82% 29.77 in 10.0 mi South 6.9 mph - N/A   Mostly Cloudy
4:45 PM 57.2 °F - 51.8 °F 82% 29.78 in 10.0 mi South 8.1 mph - N/A   Scattered Clouds
6:45 PM 57.2 °F - 51.8 °F 82% 29.77 in 10.0 mi SSE 11.5 mph - N/A   Scattered Clouds
9:45 PM 62.6 °F - 53.6 °F 72% 29.76 in 10.0 mi SSW 21.9 mph - N/A   Scattered Clouds
10:15 PM 62.6 °F - 50.0 °F 63% 29.73 in 10.0 mi South 18.4 mph 24.2 mph N/A   Scattered Clouds
10:35 PM 60.8 °F - 50.0 °F 68% 29.74 in 10.0 mi South 17.3 mph 24.2 mph N/A   Clear
10:45 PM 62.6 °F - 51.8 °F 68% 29.73 in 10.0 mi South 25.3 mph - N/A   Scattered Clouds
10:55 PM 60.8 °F - 48.2 °F 63% 29.73 in 10.0 mi South 17.3 mph 24.2 mph N/A   Scattered Clouds
11:15 PM 60.8 °F - 48.2 °F 63% 29.75 in 10.0 mi South 20.7 mph 26.5 mph N/A   Scattered Clouds
11:35 PM 60.8 °F - 48.2 °F 63% 29.75 in 10.0 mi South 17.3 mph 20.7 mph N/A   Mostly Cloudy
11:55 PM 60.8 °F - 48.2 °F 63% 29.76 in 10.0 mi South 17.3 mph - N/A   Mostly Cloudy